SQ5TM-1 Weather Reports


Display with metric or nautical units.
time (UTC)temp
F
wind
direction
speed
MPH
gust
MPH
rain 1hr
in
rain 24hr
in
rain mn
in
humidity
%
barometer
mb
20260508063123 51 0 0.0 0.0 0.00 0.00 0.00 77 1005.0
20260508061558 50 0 0.0 0.0 0.00 0.00 0.00 77 1005.0
20260508060033 51 0 0.0 0.0 0.00 0.00 0.00 76 1005.0
20260508054509 50 0 0.0 0.0 0.00 0.00 0.00 76 1005.0
20260508052944 51 0 0.0 0.0 0.00 0.00 0.00 75 1005.0
20260508051420 51 0 0.0 0.0 0.00 0.00 0.00 76 1005.0
20260508045856 51 0 0.0 0.0 0.00 0.00 0.00 77 1004.0
20260508044551 51 0 0.0 0.0 0.00 0.00 0.00 77 1004.0
20260508043026 50 0 0.0 0.0 0.00 0.00 0.00 78 1004.0
20260508041502 50 0 0.0 0.0 0.00 0.00 0.00 78 1004.0
20260508035937 51 0 0.0 0.0 0.00 0.00 0.00 76 1004.0
20260508034413 51 0 0.0 0.0 0.00 0.00 0.00 75 1004.0
20260508032849 51 0 0.0 0.0 0.00 0.00 0.00 74 1004.0
20260508031324 51 0 0.0 0.0 0.00 0.00 0.00 74 1004.0
20260508025759 52 0 0.0 0.0 0.00 0.00 0.00 72 1004.0
20260508024235 51 0 0.0 0.0 0.00 0.00 0.00 72 1004.0
20260508022711 51 0 0.0 0.0 0.00 0.00 0.00 72 1004.0
20260508021146 51 0 0.0 0.0 0.00 0.00 0.00 72 1004.0
20260508015622 52 0 0.0 0.0 0.00 0.00 0.00 71 1004.0
20260508014057 52 0 0.0 0.0 0.00 0.00 0.00 70 1004.0
20260508012533 52 0 0.0 0.0 0.00 0.00 0.00 71 1004.0
20260508011009 52 0 0.0 0.0 0.00 0.00 0.00 70 1004.0
20260508005444 53 0 0.0 0.0 0.00 0.00 0.00 69 1004.0
20260508003920 53 0 0.0 0.0 0.00 0.00 0.00 69 1004.0
20260508002356 52 0 0.0 0.0 0.00 0.00 0.00 70 1004.0
20260508000833 53 0 0.0 0.0 0.00 0.00 0.00 70 1004.0
20260507235307 53 0 0.0 0.0 0.00 0.00 0.00 70 1004.0
20260507233741 53 0 0.0 0.0 0.00 0.00 0.00 69 1004.0
20260507232217 53 0 0.0 0.0 0.00 0.00 0.00 70 1004.0
20260507230652 53 0 0.0 0.0 0.00 0.00 0.00 70 1004.0
20260507225127 54 0 0.0 0.0 0.00 0.00 0.00 69 1004.0
20260507223603 54 0 0.0 0.0 0.00 0.00 0.00 68 1003.0
20260507222039 54 0 0.0 0.0 0.00 0.00 0.00 68 1003.0
20260507220514 54 0 0.0 0.0 0.00 0.00 0.00 68 1003.0
20260507214949 54 0 0.0 0.0 0.00 0.00 0.00 69 1003.0
20260507213425 54 0 0.0 0.0 0.00 0.00 0.00 69 1003.0
20260507212025 55 0 0.0 0.0 0.00 0.00 0.00 68 1003.0
20260507210501 55 0 0.0 0.0 0.00 0.00 0.00 67 1003.0
20260507204936 55 0 0.0 0.0 0.00 0.00 0.00 67 1003.0
20260507203606 55 0 0.0 0.0 0.00 0.00 0.00 68 1003.0
20260507202042 55 0 0.0 0.0 0.00 0.00 0.00 69 1003.0
20260507200517 55 0 0.0 0.0 0.00 0.00 0.00 68 1003.0
20260507194953 55 0 0.0 0.0 0.00 0.00 0.00 67 1003.0
20260507193428 55 0 0.0 0.0 0.00 0.00 0.00 67 1003.0
20260507191904 55 0 0.0 0.0 0.00 0.00 0.00 67 1002.0
20260507190339 55 0 0.0 0.0 0.00 0.00 0.00 67 1002.0
20260507184815 56 0 0.0 0.0 0.00 0.00 0.00 67 1002.0
20260507183251 56 0 0.0 0.0 0.00 0.00 0.00 67 1002.0
20260507181726 56 0 0.0 0.0 0.00 0.00 0.00 68 1002.0
20260507181428 56 0 0.0 0.0 0.00 0.00 0.00 68 1002.0
20260507175903 57 0 0.0 0.0 0.00 0.00 0.00 67 1002.0
20260507174339 56 0 0.0 0.0 0.00 0.00 0.00 68 1001.0
20260507172815 57 0 0.0 0.0 0.00 0.00 0.00 66 1001.0
20260507171251 57 0 0.0 0.0 0.00 0.00 0.00 67 1001.0
20260507165726 58 0 0.0 0.0 0.00 0.00 0.00 66 1001.0
20260507164202 58 0 0.0 0.0 0.00 0.00 0.00 66 1001.0
20260507162638 58 0 0.0 0.0 0.00 0.00 0.00 67 1001.0
20260507161114 59 0 0.0 0.0 0.00 0.00 0.00 64 1001.0
20260507155549 59 0 0.0 0.0 0.00 0.00 0.00 66 1001.0
20260507154024 59 0 0.0 0.0 0.00 0.00 0.00 65 1001.0
20260507152500 59 0 0.0 0.0 0.00 0.00 0.00 65 1001.0
20260507150936 62 0 0.0 0.0 0.00 0.00 0.00 61 1001.0
20260507145411 62 0 0.0 0.0 0.00 0.00 0.00 61 1001.0
20260507143846 62 0 0.0 0.0 0.00 0.00 0.00 62 1001.0
20260507142322 61 0 0.0 0.0 0.00 0.00 0.00 64 1000.0
20260507140758 60 0 0.0 0.0 0.00 0.00 0.00 64 1000.0
20260507135234 60 0 0.0 0.0 0.00 0.00 0.00 66 1000.0
20260507133709 60 0 0.0 0.0 0.00 0.00 0.00 64 1000.0
20260507132145 61 0 0.0 0.0 0.00 0.00 0.00 65 1000.0
20260507130620 62 0 0.0 0.0 0.00 0.00 0.00 63 1000.0
20260507125056 60 0 0.0 0.0 0.00 0.00 0.00 67 1000.0
20260507123530 60 0 0.0 0.0 0.00 0.00 0.00 67 1000.0
20260507122005 61 0 0.0 0.0 0.00 0.00 0.00 65 1000.0
20260507120440 62 0 0.0 0.0 0.00 0.00 0.00 65 1000.0
20260507114916 62 0 0.0 0.0 0.00 0.00 0.00 65 1000.0
20260507113351 61 0 0.0 0.0 0.00 0.00 0.00 66 1000.0
20260507111825 61 0 0.0 0.0 0.00 0.00 0.00 67 1000.0
20260507110300 58 0 0.0 0.0 0.00 0.00 0.00 71 1000.0
20260507104736 58 0 0.0 0.0 0.00 0.00 0.00 71 999.0
20260507103211 58 0 0.0 0.0 0.00 0.00 0.00 72 999.0
20260507101646 57 0 0.0 0.0 0.00 0.00 0.00 73 999.0
20260507100121 57 0 0.0 0.0 0.00 0.00 0.00 74 999.0
20260507094557 57 0 0.0 0.0 0.00 0.00 0.00 74 999.0
20260507093032 59 0 0.0 0.0 0.00 0.00 0.00 71 999.0
20260507091507 59 0 0.0 0.0 0.00 0.00 0.00 74 998.0
20260507085943 59 0 0.0 0.0 0.00 0.00 0.00 72 998.0
20260507084419 60 0 0.0 0.0 0.00 0.00 0.00 71 998.0
20260507082854 61 0 0.0 0.0 0.00 0.00 0.00 71 998.0
20260507081330 61 0 0.0 0.0 0.00 0.00 0.00 69 998.0
20260507075805 60 0 0.0 0.0 0.00 0.00 0.00 73 997.0
20260507074241 60 0 0.0 0.0 0.00 0.00 0.00 73 997.0
20260507072716 62 0 0.0 0.0 0.00 0.00 0.00 69 997.0
20260507071151 62 0 0.0 0.0 0.00 0.00 0.00 70 997.0
20260507065626 61 0 0.0 0.0 0.00 0.00 0.00 72 997.0
20260507064102 61 0 0.0 0.0 0.00 0.00 0.00 73 997.0